sat.trackr.live / text

‹ back to catalog

STARLINK-11722 [DTC]

NORAD 64128 · 2025-111F

PAYLOAD ACTIVE UNKNOWN

§ Identity

Operator
Country
US
Launch date
2025-05-24
Launch site
AFETR
Launch vehicle
Mass (kg)
RCS (m²)

Purposes: comms

External: N2YO · Heavens-Above · Gunter

§ Orbital elements

Epoch: 2026-09-20T23:29:19.602240Z

Period
91.67 min
Inclination
42.9995°
Eccentricity
0.0001650
Mean motion
15.70894889 rev/d
Perigee alt
355.2 km
Apogee alt
357.4 km
Semi-major
6,734.5 km
B*
1.3852e-3
RAAN
236.6545°
Arg perigee
236.1291°
Mean anomaly
123.9419°
Rev number
7,730

§ Raw data

STARLINK-11722 [DTC]1 64128U 25111F   26263.97869910  .00181643  00000+0  13852-2 0  99922 64128  42.9995 236.6545 0001650 236.1291 123.9419 15.70894889 77303

JSON: /api/v1/satellites/64128 · /tle

For live sub-satellite position, see the globe view (requires WebGL).

§ Visibility from observer

Set your observer location to see the next 7 days of passes ≥ 10°. The values pass through the URL so the page stays shareable.

No JS? Fill the form by hand. The geolocation button needs JavaScript.